Flag for U.S.A. Weather past 2 weeks in New City, New York, U.S.A.

58 °F

Passing clouds.

Feels Like: 55 °F
Forecast: 49 / 60 °F
Wind: 14 mph from Northeast

Location: Westchester County Airport

Current Time: Oct 4, 2015 at 12:25:01 PM

Latest Report: Oct 4, 2015 at 11:56 AM

Visibility: 10 mi

Pressure: 30.32 "Hg

Humidity: 50%

Dew point: 39 °F

Location of New CityLocation

Historic Weather in New City — Graph


New City temperature yesterday

Maximum temperature yesterday: 51 °F (at 8:56 PM)
Minimum temperature yesterday: 46 °F (at 3:56 AM)
Average temperature yesterday: 49 °F

Past Weeks' High & Low Weather Summary

High80 °F (Sep 29, 12:56 PM)100% (Sep 29, 6:56 AM)30.48 "Hg (Sep 29, 6:56 AM)
Low46 °F (Oct 2, 8:56 PM)37% (Sep 21, 1:56 PM)29.65 "Hg (Sep 30, 6:56 AM)
Average62 °F73%30.19 "Hg
* Reported Sep 19 10:56 AM — Oct 4 10:56 AM, New City, Weather by CustomWeather, © 2015

Note: Actual official high and low records may vary slightly from our data, if they occured in-between our weather recording intervals... More about our weather records


New City weather history for previous 24 hours

Time TempWeatherWind HumidityBarometerVisibility
10:56 AM
Sun, Oct 4
56 °FScattered clouds.13 mph58%30.34 "Hg10 mi
9:56 AM53 °FPartly sunny.15 mph64%30.35 "Hg10 mi
8:56 AM50 °FPartly sunny.14 mph68%30.35 "Hg10 mi
7:56 AM49 °FScattered clouds.8 mph71%30.36 "Hg10 mi
6:56 AM49 °FPassing clouds.9 mph74%30.34 "Hg10 mi
5:56 AM49 °FPassing clouds.8 mph74%30.34 "Hg10 mi
4:56 AM50 °FPassing clouds.12 mph74%30.33 "Hg10 mi
3:56 AM50 °FOvercast.13 mph74%30.33 "Hg10 mi
2:56 AM50 °FPassing clouds.9 mph77%30.33 "Hg10 mi
1:56 AM51 °FPassing clouds.10 mph74%30.34 "Hg10 mi
12:56 AM51 °FPassing clouds.9 mph74%30.35 "Hg10 mi
11:56 PM
Sat, Oct 3
51 °FPassing clouds.10 mph71%30.37 "Hg10 mi
10:56 PM51 °FPassing clouds.14 mph71%30.37 "Hg10 mi
9:56 PM51 °FPassing clouds.13 mph71%30.37 "Hg10 mi
8:56 PM51 °FPassing clouds.12 mph71%30.35 "Hg10 mi
7:56 PM50 °FPassing clouds.13 mph74%30.35 "Hg10 mi
6:56 PM50 °FPartly sunny.12 mph74%30.34 "Hg10 mi
5:56 PM50 °FMostly cloudy.13 mph77%30.35 "Hg10 mi
4:56 PM50 °FMostly cloudy.13 mph77%30.35 "Hg10 mi
3:56 PM50 °FOvercast.13 mph77%30.33 "Hg10 mi
2:56 PM50 °FMostly cloudy.17 mph77%30.32 "Hg10 mi
1:56 PM50 °FMostly cloudy.15 mph80%30.31 "Hg10 mi
12:56 PM50 °FMostly cloudy.15 mph80%30.32 "Hg10 mi
Weather by CustomWeather, © 2015

See weather overviewHow to use our weather pages